Flag for Switzerland Weather past 2 weeks in Bellinzona, Ticino, Switzerland

Now
50 °F

Cool.


Feels Like: 49 °F
Forecast: 37 / 54 °F
Wind: 3 mph from West

Location: Locarno-Magadino

Current Time: Feb 27, 2015 at 3:11:57 PM

Latest Report: Feb 27, 2015 at 2:00 PM


Visibility: N/A

Pressure: 29.87 "Hg

Humidity: 41%

Dew point: 28 °F

Location of BellinzonaLocation

Historic Weather in Bellinzona — Graph

°F

Bellinzona temperature yesterday

Maximum temperature yesterday: 54 °F (at 3:00 PM)
Minimum temperature yesterday: 28 °F (at 8:00 AM)
Average temperature yesterday: 43 °F

Past Weeks' High & Low Weather Summary

 TemperatureHumidityPressure
High56 °F (Feb 25, 2:00 PM)100% (Feb 19, 3:00 AM)30.66 "Hg (Feb 19, 3:00 AM)
Low26 °F (Feb 20, 7:00 AM)19% (Feb 25, 4:00 PM)29.59 "Hg (Feb 22, 3:00 PM)
Average38 °F76%30.08 "Hg
* Reported Feb 12 1:00 PM — Feb 27 1:00 PM, Bellinzona, Weather by CustomWeather, © 2015

Note: Actual official high and low records may vary slightly from our data, if they occured in-between our weather recording intervals... More about our weather records

Advertising

Bellinzona weather history for previous 24 hours

 ConditionsComfort  
Time TempWeatherWind HumidityBarometerVisibility
1:00 PM
Fri, Feb 27
49 °FCool.2 mph44%29.90 "HgN/A
12:00 PM46 °FCool.2 mph48%29.92 "HgN/A
11:00 AM43 °FQuite cool.2 mph54%29.93 "HgN/A
10:00 AM40 °FChilly.1 mph64%29.95 "HgN/A
9:00 AM36 °FChilly.1 mph77%29.96 "HgN/A
8:00 AM35 °FChilly.1 mph81%29.96 "HgN/A
7:00 AM34 °FChilly.1 mph79%29.96 "HgN/A
6:00 AM35 °FChilly.No wind72%29.97 "HgN/A
5:00 AM35 °FChilly.1 mph73%29.97 "HgN/A
3:00 AM35 °FChilly.2 mph73%30.01 "HgN/A
2:00 AM33 °FChilly.1 mph82%30.04 "HgN/A
1:00 AM31 °FChilly.1 mph88%30.06 "HgN/A
12:00 AM32 °FChilly.No wind86%30.07 "HgN/A
11:00 PM
Thu, Feb 26
35 °FChilly.1 mph71%30.07 "HgN/A
10:00 PM36 °FChilly.1 mph69%30.07 "HgN/A
9:00 PM38 °FChilly.2 mph62%30.06 "HgN/A
8:00 PM43 °FQuite cool.3 mph55%30.04 "HgN/A
7:00 PM45 °FCool.5 mph51%30.03 "HgN/A
6:00 PM46 °FCool.3 mph43%30.02 "HgN/A
5:00 PM51 °FCool.6 mph37%30.01 "HgN/A
4:00 PM53 °FCool.7 mph25%30.01 "HgN/A
3:00 PM54 °FCool.7 mph28%30.02 "HgN/A
Weather by CustomWeather, © 2015

See weather overviewHow to use our weather pages